#timestamp,LO_Frequency,Hit,StdDev 
1540724415.4,286046997.2,P
1540724435.3,286046998.2,N
1540724455.1,286046999.0,N
1540724475.9,286046999.1,N
1540724495.7,286046996.6,Y
1540724515.5,286046998.6,P
1540724535.4,286047000.0,N
1540724555.2,286047001.0,N
1540724575.0,286046998.7,N
1540724575.9,286046998.7,N
1540724595.8,286046998.1,N
1540724615.6,286047000.8,N
1540724635.5,286047001.1,N
1540724655.3,286046996.9,N
1540724675.1,286046996.9,N
1540724695.9,286046994.9,Y
1540724715.7,286046996.1,P
1540724735.6,286046998.0,N
1540724755.4,286046995.3,P
1540724775.2,286046994.9,Y
1540724795.1,286046998.2,P
1540724796.0,286046998.2,P
1540724815.8,286047000.3,N
1540724835.6,286047000.1,N
1540724855.5,286047001.0,N
1540724875.3,286046998.8,N
1540724895.2,286046999.5,N
1540724915.9,286046998.8,N
1540724935.7,286046998.7,N
1540724955.6,286046996.6,Y
1540724975.4,286046999.1,P
1540724995.2,286046999.0,P
1540725015.1,286046998.6,P
1540725016.0,286046998.6,Y
1540725035.8,286046998.2,P
1540725055.7,286046998.6,P
1540725075.5,286047001.2,P
1540725095.3,286047001.0,N
1540725115.2,286047000.8,N
1540725135.0,286047002.1,N
1540725135.9,286047002.1,N
1540725155.8,286047002.7,N
1540725175.6,286047000.3,N
1540725195.4,286047001.1,N
1540725215.3,286047001.1,N
1540725235.1,286046998.5,N
1540725236.0,286046998.5,N
1540725255.8,286046997.2,N
1540725275.7,286046997.0,N
1540725295.5,286046996.7,N
1540725315.3,286046997.5,N
1540725335.2,286046997.7,N
1540725355.0,286046997.4,N
1540725355.9,286046997.4,N
1540725375.8,286046997.1,N
1540725395.6,286046997.7,N
1540725415.4,286046999.5,N
1540725435.3,286046997.4,N
1540725455.1,286046999.5,N
1540725475.9,286046999.2,N
1540725495.7,286046997.4,N
1540725515.5,286046997.0,N
1540725535.4,286046997.0,N
1540725555.2,286046997.7,N
1540725575.0,286046998.0,N
1540725575.9,286046998.0,N
1540725595.8,286046997.4,N
1540725615.6,286046997.8,N
1540725635.5,286046996.7,N
1540725655.3,286046997.2,N
1540725675.1,286046997.9,N
1540725695.9,286046998.0,N
1540725715.7,286046996.0,Y
1540725735.5,286046995.1,P
1540725755.4,286046995.7,N
1540725775.2,286046998.0,N
1540725795.1,286046998.0,N
1540725796.0,286046998.0,N
1540725815.8,286046996.2,Y
1540725835.6,286046997.5,P
1540725855.5,286046997.5,P
1540725875.3,286046997.0,P
1540725895.1,286046999.5,N
1540725915.9,286046999.2,N
1540725935.7,286046995.3,Y
1540725955.6,286046998.3,P
1540725975.4,286046999.1,P
1540725995.2,286046998.4,P
1540726015.1,286046998.4,Y
1540726016.0,286046998.4,P
1540726035.8,286046998.4,P
1540726055.7,286047001.2,P
1540726075.5,286046998.2,N
1540726095.3,286046998.4,N
1540726115.2,286046998.9,N
1540726135.9,286046999.6,N
1540726155.7,286046997.0,Y
1540726175.6,286046998.3,P
1540726195.4,286046997.1,P
1540726215.3,286046994.9,P
1540726235.1,286046995.3,Y
1540726236.0,286046995.3,P
1540726255.8,286046999.3,N
1540726275.7,286046997.8,N
1540726295.5,286046998.5,N
1540726315.3,286046999.0,N
1540726335.2,286046998.6,N
1540726355.0,286046999.3,N
1540726355.9,286046999.3,N
1540726375.8,286046996.8,N
1540726395.6,286046997.7,N
1540726415.4,286046995.1,Y
1540726435.3,286046999.5,P
1540726455.1,286046998.4,N
1540726475.9,286046999.5,N
1540726495.7,286046996.9,Y
1540726515.5,286046996.5,P
1540726535.4,286046997.2,N
1540726555.2,286046998.0,N
1540726575.0,286046993.3,Y
1540726575.9,286046993.3,P
1540726595.8,286046995.4,N
1540726615.6,286046995.8,N
1540726635.5,286046995.6,N
1540726655.3,286046997.8,N
1540726675.1,286046996.1,N
1540726695.9,286046995.5,Y
1540726715.7,286047000.8,P
1540726735.5,286047000.4,N
1540726755.4,286047000.2,N
1540726775.2,286047000.0,N
1540726795.1,286047001.0,N
1540726796.0,286047001.0,N
1540726815.8,286047000.8,N
1540726835.6,286047000.9,N
1540726855.5,286047001.1,N
1540726875.3,286046998.5,N
1540726895.1,286046998.4,N
1540726915.9,286047001.2,N
1540726935.7,286046997.3,N
1540726955.6,286046997.3,N
1540726975.4,286046999.0,N
1540726995.2,286046997.4,N
1540727015.1,286046997.5,N
1540727016.0,286046997.5,N
1540727035.8,286046997.7,N
1540727055.6,286046997.6,N
1540727075.5,286046997.6,N
1540727095.3,286046995.5,N
1540727115.2,286046997.3,N
1540727135.9,286046995.7,N
1540727155.7,286046997.7,N
1540727175.6,286046997.5,N
1540727195.4,286046995.9,N
1540727215.2,286046997.6,N
1540727235.1,286046995.2,N
1540727236.0,286046995.2,N
1540727255.8,286046995.4,N
1540727275.7,286046995.2,N
1540727295.5,286046995.9,N
1540727315.3,286046995.0,N
1540727335.2,286046994.5,N
1540727355.0,286046992.4,Y
1540727355.9,286046992.4,P
1540727375.8,286046997.2,N
1540727395.6,286046996.6,N
1540727415.4,286046994.9,N
1540727435.3,286046995.6,N
1540727455.1,286046995.7,N
1540727475.8,286046995.1,Y
1540727495.7,286047000.9,P
1540727515.5,286046998.2,N
1540727535.4,286046998.5,N
1540727555.2,286046999.2,N
1540727575.0,286046999.3,N
1540727575.9,286046999.3,N
1540727595.8,286046999.2,N
1540727615.6,286046998.4,N
1540727635.4,286047000.7,N
1540727655.3,286047000.7,N
1540727675.1,286046998.6,N
1540727695.9,286046999.7,N
1540727715.7,286047002.3,N
1540727735.5,286046999.9,N
1540727755.4,286046999.9,N
1540727775.2,286047001.2,N
1540727795.0,286047001.1,N
1540727795.9,286047001.1,N
1540727815.8,286047001.0,N
1540727835.6,286047001.1,N
1540727855.5,286047000.7,N
1540727875.3,286046999.6,N
1540727895.1,286046996.6,N
1540727915.9,286046999.5,N
1540727935.7,286046999.0,N
1540727955.5,286046998.3,N
1540727975.4,286047001.1,N
1540727995.2,286046999.2,N
